Flag for Poland Weather past 2 weeks in Szczecin, Poland

Now
54 °F

Partly sunny.


Feels Like: 51 °F
Forecast: 45 / 56 °F
Wind: 8 mph from Northwest

Location: Szczecin Airport

Current Time: May 26, 2015 at 2:52:32 PM

Latest Report: May 26, 2015 at 2:30 PM


Visibility: N/A

Pressure: 29.98 "Hg

Humidity: 72%

Dew point: 45 °F

Location of SzczecinLocation

Historic Weather in Szczecin — Graph

°F

Szczecin temperature yesterday

Maximum temperature yesterday: 68 °F (at 2:30 PM)
Minimum temperature yesterday: 46 °F (at 2:30 AM)
Average temperature yesterday: 56 °F

Past Weeks' High & Low Weather Summary

 TemperatureHumidityPressure
High77 °F (May 12, 4:00 PM)100% (May 12, 9:00 PM)30.33 "Hg (May 12, 9:00 PM)
Low36 °F (May 24, 4:30 AM)34% (May 11, 3:00 PM)29.56 "Hg (May 19, 4:30 AM)
Average53 °F70%29.99 "Hg
* Reported May 11 1:00 PM — May 26 1:30 PM, Szczecin, Weather by CustomWeather, © 2015

Note: Actual official high and low records may vary slightly from our data, if they occured in-between our weather recording intervals... More about our weather records

Advertising

Szczecin weather history for previous 24 hours

 ConditionsComfort  
Time TempWeatherWind HumidityBarometerVisibility
1:30 PM
Tue, May 26
54 °FPassing clouds.7 mph72%29.98 "HgN/A
1:00 PM55 °FScattered clouds.12 mph63%29.95 "HgN/A
12:30 PM57 °FScattered clouds.12 mph48%29.95 "HgN/A
12:00 PM57 °FScattered clouds.10 mph55%29.95 "HgN/A
11:30 AM55 °FBroken clouds.9 mph63%29.95 "HgN/A
11:00 AM55 °FPartly sunny.9 mph67%29.95 "HgN/A
10:30 AM55 °FScattered clouds.9 mph67%29.95 "HgN/A
10:00 AM55 °FScattered clouds.7 mph67%29.92 "HgN/A
9:30 AM55 °FScattered clouds.10 mph67%29.92 "HgN/A
9:00 AM54 °FScattered clouds.10 mph77%29.92 "HgN/A
8:30 AM52 °FScattered clouds.5 mph82%29.92 "HgN/A
8:00 AM52 °FScattered clouds.7 mph88%29.89 "HgN/A
7:30 AM52 °FScattered clouds.2 mph82%29.89 "HgN/A
7:00 AM50 °FSunny.No wind88%29.89 "Hg10 mi
6:30 AM48 °FSunny.No wind94%29.92 "Hg10 mi
6:00 AM48 °FSunny.No wind94%29.89 "Hg10 mi
5:30 AM48 °FClear.2 mph94%29.89 "Hg10 mi
5:00 AM48 °FClear.2 mph94%29.89 "Hg10 mi
4:30 AM48 °FClear.3 mph94%29.89 "Hg10 mi
4:00 AM48 °FClear.5 mph94%29.89 "Hg10 mi
3:30 AM48 °FClear.3 mph94%29.89 "Hg10 mi
3:00 AM48 °FPassing clouds.3 mph100%29.89 "HgN/A
2:30 AM50 °FPassing clouds.2 mph50%29.89 "HgN/A
2:00 AM50 °FPassing clouds.3 mph94%29.89 "HgN/A
1:30 AM50 °FPassing clouds.6 mph94%29.86 "HgN/A
1:00 AM50 °FPassing clouds.5 mph94%29.89 "HgN/A
12:30 AM52 °FPassing clouds.5 mph94%29.89 "HgN/A
12:00 AM52 °FPassing clouds.2 mph94%29.89 "Hg5 mi
11:30 PM
Mon, May 25
52 °FPassing clouds.2 mph94%29.89 "Hg4 mi
11:00 PM52 °FPassing clouds.2 mph94%29.89 "HgN/A
10:30 PM52 °FSprinkles. Passing clouds.2 mph100%29.89 "HgN/A
10:00 PM52 °FPassing clouds.2 mph94%29.89 "HgN/A
9:30 PM52 °FPassing clouds.2 mph94%29.86 "HgN/A
9:00 PM54 °FSprinkles. Scattered clouds.3 mph94%29.86 "Hg5 mi
8:30 PM54 °FSprinkles. Scattered clouds.5 mph88%29.86 "HgN/A
8:00 PM54 °FSprinkles. Scattered clouds.5 mph94%29.86 "Hg5 mi
7:30 PM55 °FSprinkles. Partly sunny.6 mph77%29.86 "Hg5 mi
7:00 PM59 °FSprinkles. Scattered clouds.8 mph68%29.83 "HgN/A
6:30 PM61 °FScattered clouds.8 mph59%29.83 "HgN/A
6:00 PM63 °FScattered clouds.9 mph52%29.83 "HgN/A
5:30 PM66 °FScattered clouds.2 mph52%29.83 "HgN/A
5:00 PM66 °FScattered clouds.3 mph52%29.83 "HgN/A
4:30 PM66 °FPassing clouds.3 mph46%29.83 "HgN/A
4:00 PM68 °FPassing clouds.6 mph43%29.83 "HgN/A
3:30 PM68 °FPassing clouds.8 mph46%29.83 "HgN/A
3:00 PM66 °FPassing clouds.6 mph49%29.83 "HgN/A
2:30 PM68 °FPassing clouds.7 mph46%29.86 "HgN/A
2:00 PM66 °FPassing clouds.6 mph52%29.86 "HgN/A
Weather by CustomWeather, © 2015

See weather overviewHow to use our weather pages